Hourly Data Report for October 21, 2015

All times are specified in Local Standard Time (LST). Add 1 hour to adjust for Daylight Saving Time where and when it is observed.

FREDERICTON
NEW BRUNSWICK

45°52'08.000" N
66°32'14.000" W
20.70 m
8101505
71700
YFC

Download Data

Hourly Data (October 2015)
Hourly Data Report for October 21, 2015
Temp Definition
°C
Dew Point Temp Definition
°C
Rel Hum Definition
%
Wind Dir Definition
10's deg

Wind Spd Definition
km/h
Visibility Definition
km
Stn Press Definition
kPa
Hmdx Definition


Wind Chill Definition


Weather Definition


TIME
00:00 Legend Double Dagger 4.6 -0.6 69 22 8 16.1 101.64     LegendNANA
01:00 Legend Double Dagger 4.2 -1.6 66 25 11 16.1 101.72     LegendNANA
02:00 Legend Double Dagger 3.4 -2.8 64 32 9 16.1 101.83     LegendNANA
03:00 Legend Double Dagger 2.0 -2.2 74 30 9 16.1 101.90     LegendNANA
04:00 Legend Double Dagger -1.6 -3.3 88 21 9 16.1 101.96   -5 LegendNANA
05:00 Legend Double Dagger -1.1 -3.5 84 20 9 16.1 102.04   -4 LegendNANA
06:00 Legend Double Dagger -2.3 -3.7 90 18 5 16.1 102.12   -4 LegendNANA
07:00 Legend Double Dagger -3.3 -4.1 94 19 8 16.1 102.20   -7 LegendNANA
08:00 Legend Double Dagger -1.6 -2.9 91 20 5 16.1 102.26   -3 LegendNANA
09:00 Legend Double Dagger 3.5 -4.3 57 31 15 16.1 102.33     LegendNANA
10:00 Legend Double Dagger 4.9 -5.5 47 29 21 16.1 102.35     LegendNANA
11:00 Legend Double Dagger 6.9 -5.7 40 31 22 16.1 102.34     LegendNANA
12:00 Legend Double Dagger 7.9 -6.2 36 28 13 16.1 102.32     LegendNANA
13:00 Legend Double Dagger 8.8 -7.2 32 28 21 16.1 102.30     LegendNANA
14:00 Legend Double Dagger 9.2 -6.6 32 32 21 16.1 102.30     LegendNANA
15:00 Legend Double Dagger 9.3 -6.7 32 28 13 16.1 102.31     LegendNANA
16:00 Legend Double Dagger 8.8 -6.6 33 31 15 16.1 102.36     LegendNANA
17:00 Legend Double Dagger 7.7 -6.0 37 29 9 16.1 102.42     LegendNANA
18:00 Legend Double Dagger 5.7 -5.1 46 30 5 16.1 102.48     LegendNANA
19:00 Legend Double Dagger 1.6 -2.5 74   0 16.1 102.56     LegendNANA
20:00 Legend Double Dagger 0.9 -3.1 75 34 4 16.1 102.60     LegendNANA
21:00 Legend Double Dagger -2.4 -4.0 89 20 9 16.1 102.62   -6 LegendNANA
22:00 Legend Double Dagger -1.5 -3.7 85 20 8 16.1 102.67   -5 LegendNANA
23:00 Legend Double Dagger -1.7 -3.3 89 22 8 16.1 102.67   -5 LegendNANA

Notes on Data Quality.

Legend

  • E = Estimated
  • M = Missing
  • NA = Not Available
  • ‡ = Partner data that is not subject to review by the National Climate Archives
Date modified: